Alyeska Resort
Hourly Weather - Base Weather Site
ALY_BASE_HR 11/22/2014
CLICK TO VIEW GRAPH!!

        DATE  TIME   Air  BATT   H2o   H2o   Rel
                    Temp  Volt  Inch Since  Hum%
                      F   AVG   1HR  0600   AVG

  11/22/2014 04:00    36 13.96  0.00  0.07    94
  11/22/2014 03:00    37 13.95  0.02  0.07    95
  11/22/2014 02:00    37 13.95  0.02  0.05    94
  11/22/2014 01:00    37 13.95  0.00  0.03    94
  11/21/2014 24:00    37 13.95  0.01  0.03    92
  11/21/2014 23:00    37 13.95  0.00  0.02    93
  11/21/2014 22:00    37 13.95  0.00  0.02    92
  11/21/2014 21:00    38 13.94  0.00  0.02    91
  11/21/2014 20:00    38 13.93  0.00  0.02    92
  11/21/2014 19:00    39 13.92  0.00  0.02    90
  11/21/2014 18:00    39 13.91  0.01  0.02    87
  11/21/2014 17:00    40 13.90  0.01  0.01    84
  11/21/2014 16:00    41 13.89  0.00  0.00    79
  11/21/2014 15:00    41 13.89  0.00  0.00    80
  11/21/2014 14:00    41 13.88  0.00  0.00    77
  11/21/2014 13:00    41 13.88  0.00  0.00    75
  11/21/2014 12:00    42 13.89  0.00  0.00    72
  11/21/2014 11:00    41 13.90  0.00  0.00    67
  11/21/2014 10:00    41 13.90  0.00  0.00    63
  11/21/2014 09:00    40 13.89  0.00  0.00    67
  11/21/2014 08:00    41 13.88  0.00  0.00    67
  11/21/2014 07:00    42 13.86  0.00  0.00    64
  11/21/2014 06:00    42 13.84  0.00  0.45    63
  11/21/2014 05:00    42 13.80  0.00  0.45    64


CLICK TO VIEW GRAPH!!